This is the latest recevied weather packets stored in our database for station/object KD4KKF. If no packets are shown the sender has not sent any weather packets the latest 10 day(s).
| Time | Temp. | Humidity | Pressure | Rain* | Wind** | Luminosity | Snow |
|---|---|---|---|---|---|---|---|
| 1777898001 | 10° C | 99% | 1016.5 hPa | 0 mm | - | 95 W/m² | - |
| 1777897697 | 9.44° C | 99% | 1017 hPa | 0 mm | - | 72 W/m² | - |
| 1777897394 | 10° C | 99% | 1016.8 hPa | 0 mm | - | 70 W/m² | - |
| 1777897090 | 8.89° C | 99% | 1016.7 hPa | 0 mm | - | 75 W/m² | - |
| 1777896786 | 8.89° C | 99% | 1016.6 hPa | 0 mm | - | 78 W/m² | - |
| 1777896484 | 7.78° C | 99% | 1016.7 hPa | 0 mm | - | 70 W/m² | - |
| 1777896181 | 7.78° C | 99% | 1016.5 hPa | 0 mm | - | 54 W/m² | - |
| 1777895878 | 7.78° C | 99% | 1016.6 hPa | 0 mm | - | 42 W/m² | - |
| 1777895576 | 6.67° C | 99% | 1016.8 hPa | 0 mm | - | 32 W/m² | - |
| 1777895273 | 6.67° C | 99% | 1016.4 hPa | 0 mm | - | 26 W/m² | - |
| 1777894971 | 6.67° C | 99% | 1016.5 hPa | 0 mm | - | 25 W/m² | - |
| 1777894668 | 6.67° C | 99% | 1016.4 hPa | 0 mm | - | 23 W/m² | - |
| 1777894364 | 6.67° C | 99% | 1016 hPa | 0 mm | - | 20 W/m² | - |
| 1777894062 | 6.67° C | 99% | 1016.1 hPa | 0 mm | - | 18 W/m² | - |
| 1777893758 | 6.67° C | 99% | 1016.1 hPa | 0 mm | - | 16 W/m² | - |
| 1777893455 | 6.67° C | 99% | 1016.2 hPa | 0 mm | - | 12 W/m² | - |
| 1777893152 | 6.67° C | 99% | 1015.8 hPa | 0 mm | - | 8 W/m² | - |
| 1777892848 | 6.67° C | 99% | 1015.9 hPa | 0 mm | - | 5 W/m² | - |
| 1777892544 | 6.67° C | 99% | 1015.7 hPa | 0 mm | - | 1 W/m² | - |
| 1777892240 | 6.67° C | 99% | 1016 hPa | 0 mm | - | 0 W/m² | - |
| 1777891937 | 6.67° C | 99% | 1015.8 hPa | 0 mm | - | 0 W/m² | - |
| 1777891635 | 6.67° C | 99% | 1015.8 hPa | 0 mm | - | 0 W/m² | - |
| 1777891331 | 6.67° C | 99% | 1015.8 hPa | 0 mm | - | 0 W/m² | - |
| 1777891026 | 6.67° C | 99% | 1015.7 hPa | 0 mm | - | 0 W/m² | - |
| 1777890725 | 6.67° C | 99% | 1015.8 hPa | 0 mm | - | 0 W/m² | - |
* Rain latest hour (hover to see other rain measurements)
** Current wind speed in m/s (hover to see current wind gust speed)